This is the latest recevied weather packets stored in our database for station/object F4FEB-13. If no packets are shown the sender has not sent any weather packets the latest 1 day(s).
| Time | Temp. | Humidity | Pressure | Rain* | Wind** | Luminosity | Snow |
|---|---|---|---|---|---|---|---|
| 1777996158 | 13.89° C | 78% | 1007.8 hPa | 1.27 mm | 3.58 m/s, 265° | - | - |
| 1777995858 | 15° C | 79% | 1008 hPa | 0.25 mm | 1.79 m/s, 264° | - | - |
| 1777995558 | 15° C | 77% | 1007.7 hPa | 0 mm | 2.24 m/s, 261° | - | - |
| 1777995258 | 15.56° C | 76% | 1007.6 hPa | 0 mm | 1.34 m/s, 296° | - | - |
| 1777994961 | 15.56° C | 74% | 1007.7 hPa | 0 mm | 1.34 m/s, 298° | - | - |
| 1777994958 | 15.56° C | 74% | 1007.7 hPa | 0 mm | 1.34 m/s, 298° | - | - |
| 1777994658 | 15.56° C | 75% | 1007.6 hPa | 0 mm | 5.81 m/s, 236° | - | - |
| 1777994358 | 15.56° C | 78% | 1007.6 hPa | 0 mm | 2.68 m/s, 240° | - | - |
| 1777994061 | 15.56° C | 76% | 1007.7 hPa | 0 mm | 0.89 m/s, 260° | - | - |
| 1777994058 | 15.56° C | 76% | 1007.7 hPa | 0 mm | 0.89 m/s, 260° | - | - |
| 1777993758 | 16.11° C | 75% | 1007.7 hPa | 0 mm | 4.02 m/s, 251° | - | - |
| 1777993458 | 16.11° C | 73% | 1007.7 hPa | 0 mm | 2.24 m/s, 248° | - | - |
| 1777993161 | 16.11° C | 73% | 1007.6 hPa | 0 mm | 3.58 m/s, 282° | - | - |
| 1777993158 | 16.11° C | 73% | 1007.6 hPa | 0 mm | 3.58 m/s, 282° | - | - |
| 1777992858 | 16.11° C | 77% | 1007.6 hPa | 0 mm | 2.24 m/s, 275° | - | - |
| 1777992558 | 15.56° C | 80% | 1007.6 hPa | 0 mm | 2.24 m/s, 292° | - | - |
| 1777992258 | 15° C | 79% | 1007.6 hPa | 0 mm | 4.02 m/s, 247° | - | - |
| 1777991958 | 15° C | 82% | 1007.6 hPa | 0 mm | 2.24 m/s, 123° | - | - |
| 1777991658 | 15° C | 83% | 1007.7 hPa | 0 mm | 3.13 m/s, 232° | - | - |
| 1777991358 | 14.44° C | 81% | 1007.6 hPa | 0 mm | 3.13 m/s, 255° | - | - |
| 1777991058 | 15° C | 80% | 1007.7 hPa | 0 mm | 4.02 m/s, 192° | - | - |
| 1777990758 | 15° C | 80% | 1007.7 hPa | 0 mm | 3.58 m/s, 240° | - | - |
| 1777990461 | 15.56° C | 83% | 1007.7 hPa | 0 mm | 2.68 m/s, 175° | - | - |
| 1777990458 | 15.56° C | 83% | 1007.7 hPa | 0 mm | 2.68 m/s, 175° | - | - |
| 1777990158 | 15.56° C | 82% | 1007.7 hPa | 0 mm | 1.79 m/s, 267° | - | - |
* Rain latest hour (hover to see other rain measurements)
** Current wind speed in m/s (hover to see current wind gust speed)